,,Stat5,,Stat1,,Stat2,,Stat3,,Stat4,,Wind1,,Wind1,
time,status,PA1M_AVG,status,PR1M_SUM,status,RH1M_AVG,status,SR1M_AVG,status,TA1M_AVG,status,W1dAve1m,status,W1sAve1m,
2000-10-21, 00:00:00,VALID,918.747,VALID,0,VALID,91.9993,VALID,-0.101885,VALID,18.9748,VALID,80,VALID,2.04983,
2000-10-21, 00:01:00,VALID,918.716,VALID,0,VALID,93.0967,VALID,-0.0509425,VALID,18.9318,VALID,77,VALID,1.17708,
2000-10-21, 00:02:00,VALID,918.711,VALID,0,VALID,93.5685,VALID,-0.0849042,VALID,18.8677,VALID,97,VALID,0.950521,
2000-10-21, 00:03:00,VALID,918.677,VALID,0,VALID,93.262,VALID,-0.0169808,VALID,18.81,VALID,306,VALID,0.60403,
2000-10-21, 00:04:00,VALID,918.675,VALID,0,VALID,93.1463,VALID,-0.0849042,VALID,18.8095,VALID,29,VALID,1.27459,
2000-10-21, 00:05:00,VALID,918.647,VALID,0,VALID,93.4515,VALID,-0.0509425,VALID,18.7929,VALID,327,VALID,0.824424,
2000-10-21, 00:06:00,VALID,918.641,VALID,0,VALID,92.7127,VALID,-0.0509425,VALID,18.8036,VALID,328,VALID,1.61845,
2000-10-21, 00:07:00,VALID,918.636,VALID,0,VALID,92.1634,VALID,-0.0169808,VALID,18.8739,VALID,333,VALID,1.38405,
2000-10-21, 00:08:00,VALID,918.625,VALID,0,VALID,92.2981,VALID,-0.0169808,VALID,18.8938,VALID,23,VALID,0.822266,
2000-10-21, 00:09:00,VALID,918.579,VALID,0,VALID,92.5245,VALID,-0.0169808,VALID,18.8838,VALID,32,VALID,1.38199,
2000-10-21, 00:10:00,VALID,918.541,VALID,0,VALID,93.1043,VALID,-0.0679233,VALID,18.8351,VALID,88,VALID,1.28706,
2000-10-21, 00:11:00,VALID,918.569,VALID,0,VALID,92.8805,VALID,-0.0339617,VALID,18.7835,VALID,147,VALID,0.996711,
2000-10-21, 00:12:00,VALID,918.543,VALID,0,VALID,93.1921,VALID,-0.0679233,VALID,18.7772,VALID,108,VALID,1.43832,
2000-10-21, 00:13:00,VALID,918.519,VALID,0,VALID,93.5062,VALID,-0.0509425,VALID,18.7546,VALID,155,VALID,0.458705,
2000-10-21, 00:14:00,VALID,918.507,VALID,0,VALID,93.243,VALID,-0.0679233,VALID,18.7484,VALID,311,VALID,1.24938,
2000-10-21, 00:15:00,VALID,918.483,VALID,0,VALID,93.4388,VALID,-0.0679233,VALID,18.7417,VALID,242,VALID,0.515836,
2000-10-21, 00:16:00,VALID,918.5,VALID,0,VALID,93.6193,VALID,-0.0509425,VALID,18.7191,VALID,188,VALID,0.76398,
2000-10-21, 00:17:00,VALID,918.468,VALID,0,VALID,93.543,VALID,-0.0679233,VALID,18.7119,VALID,105,VALID,1.46915,
2000-10-21, 00:18:00,VALID,918.462,VALID,0,VALID,93.5787,VALID,-0.0339617,VALID,18.7152,VALID,156,VALID,0.54308,
2000-10-21, 00:19:00,VALID,918.479,VALID,0,VALID,94.1712,VALID,0,VALID,18.6953,VALID,155,VALID,0.694141,
2000-10-21, 00:20:00,VALID,918.466,VALID,0,VALID,94.5336,VALID,-0.0169808,VALID,18.6635,VALID,87,VALID,1.09536,
2000-10-21, 00:21:00,VALID,918.465,VALID,0,VALID,94.9927,VALID,-0.0169808,VALID,18.6081,VALID,89,VALID,1.04033,
2000-10-21, 00:22:00,VALID,918.48,VALID,0,VALID,95.0931,VALID,-0.0169808,VALID,18.5564,VALID,118,VALID,0.684743,
2000-10-21, 00:23:00,VALID,918.466,VALID,0,VALID,95.2851,VALID,-0.0169808,VALID,18.5437,VALID,77,VALID,0.322846,
2000-10-21, 00:24:00,VALID,918.478,VALID,0,VALID,95.2839,VALID,0,VALID,18.5244,VALID,188,VALID,0.26416,
2000-10-21, 00:25:00,VALID,918.454,VALID,0,VALID,95.2661,VALID,-0.0169808,VALID,18.5117,VALID,288,VALID,0.69972,
2000-10-21, 00:26:00,VALID,918.445,VALID,0,VALID,95.2801,VALID,-0.0169808,VALID,18.541,VALID,32,VALID,0.768304,
2000-10-21, 00:27:00,VALID,918.451,VALID,0,VALID,95.4746,VALID,-0.0169808,VALID,18.5373,VALID,96,VALID,1.24514,
2000-10-21, 00:28:00,VALID,918.416,VALID,0,VALID,95.0613,VALID,-0.0339617,VALID,18.5567,VALID,97,VALID,1.23527,
2000-10-21, 00:29:00,VALID,918.406,VALID,0,VALID,95.1936,VALID,-0.0169808,VALID,18.5597,VALID,110,VALID,0.601563,
2000-10-21, 00:30:00,VALID,918.406,VALID,0,VALID,95.4365,VALID,-0.0169808,VALID,18.544,VALID,100,VALID,0.803865,
2000-10-21, 00:31:00,VALID,918.408,VALID,0,VALID,95.6971,VALID,-0.0509425,VALID,18.5084,VALID,114,VALID,0.945929,
2000-10-21, 00:32:00,VALID,918.36,VALID,0,VALID,95.8752,VALID,-0.0339617,VALID,18.4831,VALID,42,VALID,0.601116,
2000-10-21, 00:33:00,VALID,918.365,VALID,0,VALID,95.7582,VALID,-0.0679233,VALID,18.4602,VALID,192,VALID,0.76478,
2000-10-21, 00:34:00,VALID,918.342,VALID,0,VALID,95.8485,VALID,-0.0339617,VALID,18.4635,VALID,99,VALID,0.72955,
2000-10-21, 00:35:00,VALID,918.357,VALID,0,VALID,96.0507,VALID,-0.0169808,VALID,18.4538,VALID,70,VALID,0.834459,
2000-10-21, 00:36:00,VALID,918.339,VALID,0,VALID,96.2897,VALID,-0.0169808,VALID,18.4312,VALID,125,VALID,0.366211,
2000-10-21, 00:37:00,VALID,918.297,VALID,0,VALID,96.4525,VALID,-0.0339617,VALID,18.4122,VALID,80,VALID,0.781651,
2000-10-21, 00:38:00,VALID,918.285,VALID,0,VALID,96.633,VALID,0,VALID,18.3896,VALID,68,VALID,0.308036,
2000-10-21, 00:39:00,VALID,918.265,VALID,0,VALID,96.7373,VALID,-0.0169808,VALID,18.3502,VALID,3,VALID,0.781461,
2000-10-21, 00:40:00,VALID,918.275,VALID,0,VALID,96.7462,VALID,-0.0339617,VALID,18.3308,VALID,81,VALID,0.710938,
2000-10-21, 00:41:00,VALID,918.244,VALID,0,VALID,96.6089,VALID,-0.0339617,VALID,18.3569,VALID,94,VALID,1.6307,
2000-10-21, 00:42:00,VALID,918.227,VALID,0,VALID,96.4906,VALID,-0.0169808,VALID,18.376,VALID,95,VALID,1.37459,
2000-10-21, 00:43:00,VALID,918.223,VALID,0,VALID,96.2923,VALID,-0.0339617,VALID,18.409,VALID,94,VALID,0.983141,
2000-10-21, 00:44:00,VALID,918.232,VALID,0,VALID,96.2414,VALID,0,VALID,18.3917,VALID,103,VALID,1.01741,
2000-10-21, 00:45:00,VALID,918.202,VALID,0,VALID,96.2312,VALID,-0.0509425,VALID,18.4026,VALID,93,VALID,1.51267,
2000-10-21, 00:46:00,VALID,918.18,VALID,0,VALID,96.1168,VALID,-0.0169808,VALID,18.3986,VALID,94,VALID,1.66085,
2000-10-21, 00:47:00,VALID,918.157,VALID,0,VALID,96.0214,VALID,0.101885,VALID,18.4136,VALID,90,VALID,1.11212,
2000-10-21, 00:48:00,VALID,918.157,VALID,0,VALID,95.9998,VALID,0.0849042,VALID,18.4205,VALID,91,VALID,1.15332,
2000-10-21, 00:49:00,VALID,918.142,VALID,0,VALID,95.8218,VALID,0.0849042,VALID,18.4434,VALID,88,VALID,1.69852,
2000-10-21, 00:50:00,VALID,918.138,VALID,0,VALID,95.701,VALID,0.0679233,VALID,18.4591,VALID,92,VALID,1.04152,
2000-10-21, 00:51:00,VALID,918.145,VALID,0,VALID,95.6247,VALID,0.0509425,VALID,18.472,VALID,94,VALID,1.27407,
2000-10-21, 00:52:00,VALID,918.113,VALID,0,VALID,95.4505,VALID,0.101885,VALID,18.4782,VALID,66,VALID,1.01494,
2000-10-21, 00:53:00,VALID,918.111,VALID,0,VALID,95.3157,VALID,0.0849042,VALID,18.5008,VALID,73,VALID,0.594595,
2000-10-21, 00:54:00,VALID,918.113,VALID,0,VALID,95.3602,VALID,0.0679233,VALID,18.5015,VALID,95,VALID,0.655428,
2000-10-21, 00:55:00,VALID,918.094,VALID,0,VALID,95.6425,VALID,0.0679233,VALID,18.4784,VALID,94,VALID,1.15872,
2000-10-21, 00:56:00,VALID,918.074,VALID,0,VALID,95.6882,VALID,0.0849042,VALID,18.4457,VALID,89,VALID,1.17612,
2000-10-21, 00:57:00,VALID,918.051,VALID,0,VALID,95.7238,VALID,0.0339617,VALID,18.4491,VALID,91,VALID,1.35241,
2000-10-21, 00:58:00,VALID,918.033,VALID,0,VALID,95.8205,VALID,0.101885,VALID,18.4337,VALID,92,VALID,1.08456,
2000-10-21, 00:59:00,VALID,918.044,VALID,0,VALID,95.8536,VALID,0.101885,VALID,18.4305,VALID,84,VALID,1.35853,
2000-10-21, 01:00:00,VALID,918.022,VALID,0,VALID,95.8904,VALID,0.0849042,VALID,18.4201,VALID,92,VALID,1.06665,
2000-10-21, 01:01:00,VALID,918.027,VALID,0,VALID,95.926,VALID,0.0509425,VALID,18.4141,VALID,82,VALID,1.16406,
2000-10-21, 01:02:00,VALID,918.019,VALID,0,VALID,95.954,VALID,0,VALID,18.4312,VALID,72,VALID,0.58192,
2000-10-21, 01:03:00,VALID,917.999,VALID,0,VALID,96.043,VALID,0,VALID,18.4143,VALID,99,VALID,0.589949,
2000-10-21, 01:04:00,VALID,917.976,VALID,0,VALID,96.1002,VALID,0,VALID,18.4014,VALID,92,VALID,0.945083,
2000-10-21, 01:05:00,VALID,917.957,VALID,0,VALID,96.1536,VALID,0,VALID,18.3887,VALID,89,VALID,0.676731,
2000-10-21, 01:06:00,VALID,917.955,VALID,0,VALID,96.174,VALID,0.0169808,VALID,18.3758,VALID,91,VALID,1.03742,
2000-10-21, 01:07:00,VALID,917.933,VALID,0,VALID,96.1448,VALID,0,VALID,18.3954,VALID,88,VALID,1.25925,
2000-10-21, 01:08:00,VALID,917.928,VALID,0,VALID,96.1765,VALID,0.0509425,VALID,18.4053,VALID,89,VALID,1.14174,
2000-10-21, 01:09:00,VALID,917.928,VALID,0,VALID,96.2172,VALID,0.0169808,VALID,18.3956,VALID,80,VALID,1.15709,
2000-10-21, 01:10:00,VALID,917.934,VALID,0,VALID,96.1765,VALID,0.0339617,VALID,18.3956,VALID,83,VALID,1.41659,
2000-10-21, 01:11:00,VALID,917.923,VALID,0,VALID,96.0405,VALID,0,VALID,18.4247,VALID,91,VALID,1.32517,
2000-10-21, 01:12:00,VALID,917.902,VALID,0,VALID,95.8472,VALID,0.0169808,VALID,18.4672,VALID,88,VALID,1.34424,
2000-10-21, 01:13:00,VALID,917.904,VALID,0,VALID,95.7874,VALID,0.0169808,VALID,18.4565,VALID,82,VALID,1.08313,
2000-10-21, 01:14:00,VALID,917.901,VALID,0,VALID,95.7696,VALID,0.0169808,VALID,18.4632,VALID,80,VALID,0.855357,
2000-10-21, 01:15:00,VALID,917.887,VALID,0,VALID,95.7073,VALID,0,VALID,18.4665,VALID,84,VALID,1.21643,
2000-10-21, 01:16:00,VALID,917.869,VALID,0,VALID,95.5992,VALID,0,VALID,18.4888,VALID,77,VALID,0.787224,
2000-10-21, 01:17:00,VALID,917.866,VALID,0,VALID,95.5026,VALID,0.0169808,VALID,18.5184,VALID,78,VALID,1.15393,
2000-10-21, 01:18:00,VALID,917.864,VALID,0,VALID,95.3347,VALID,0.0169808,VALID,18.5442,VALID,99,VALID,0.681538,
2000-10-21, 01:19:00,VALID,917.864,VALID,0,VALID,95.3589,VALID,0,VALID,18.5407,VALID,134,VALID,0.252467,
2000-10-21, 01:20:00,VALID,917.863,VALID,0,VALID,95.3119,VALID,0.0169808,VALID,18.5313,VALID,158,VALID,0.618527,
2000-10-21, 01:21:00,VALID,917.861,VALID,0,VALID,95.3322,VALID,0.0169808,VALID,18.5084,VALID,170,VALID,0.84734,
2000-10-21, 01:22:00,VALID,917.875,VALID,0,VALID,95.4276,VALID,0.0339617,VALID,18.4988,VALID,218,VALID,0.626608,
2000-10-21, 01:23:00,VALID,917.89,VALID,0,VALID,95.5852,VALID,0.0169808,VALID,18.4923,VALID,227,VALID,0.72234,
2000-10-21, 01:24:00,VALID,917.883,VALID,0,VALID,95.8307,VALID,0.0169808,VALID,18.4768,VALID,223,VALID,0.959961,
2000-10-21, 01:25:00,VALID,917.877,VALID,0,VALID,96.0036,VALID,0.0169808,VALID,18.4538,VALID,221,VALID,0.945913,
2000-10-21, 01:26:00,VALID,917.853,VALID,0,VALID,96.1142,VALID,0.0339617,VALID,18.4344,VALID,206,VALID,1.11183,
2000-10-21, 01:27:00,VALID,917.823,VALID,0,VALID,96.0201,VALID,0,VALID,18.4086,VALID,192,VALID,1.39421,
2000-10-21, 01:28:00,VALID,917.813,VALID,0,VALID,95.9972,VALID,0,VALID,18.4118,VALID,194,VALID,0.217142,
2000-10-21, 01:29:00,VALID,917.79,VALID,0,VALID,95.837,VALID,0,VALID,18.4155,VALID,157,VALID,0.763302,
2000-10-21, 01:30:00,VALID,917.778,VALID,0,VALID,95.7722,VALID,0,VALID,18.4277,VALID,190,VALID,0.29852,
2000-10-21, 01:31:00,VALID,917.764,VALID,0,VALID,95.7925,VALID,-0.0169808,VALID,18.4448,VALID,208,VALID,0.449424,
2000-10-21, 01:32:00,VALID,917.749,VALID,0,VALID,95.8485,VALID,-0.0849042,VALID,18.4256,VALID,217,VALID,0.828125,
2000-10-21, 01:33:00,VALID,917.714,VALID,0,VALID,95.748,VALID,-0.101885,VALID,18.4261,VALID,215,VALID,0.84924,
2000-10-21, 01:34:00,VALID,917.694,VALID,0,VALID,95.7582,VALID,-0.101885,VALID,18.4519,VALID,198,VALID,0.798713,
2000-10-21, 01:35:00,VALID,917.673,VALID,0,VALID,95.6437,VALID,-0.0849042,VALID,18.4681,VALID,183,VALID,0.699113,
2000-10-21, 01:36:00,VALID,917.666,VALID,0,VALID,95.4339,VALID,-0.101885,VALID,18.4812,VALID,168,VALID,1.00098,
2000-10-21, 01:37:00,VALID,917.668,VALID,0,VALID,95.3144,VALID,-0.101885,VALID,18.5004,VALID,143,VALID,0.947516,
2000-10-21, 01:38:00,VALID,917.647,VALID,0,VALID,95.4199,VALID,-0.0849042,VALID,18.4845,VALID,146,VALID,1.12411,
2000-10-21, 01:39:00,VALID,917.634,VALID,0,VALID,95.2648,VALID,-0.101885,VALID,18.4778,VALID,159,VALID,0.969595,
2000-10-21, 01:40:00,VALID,917.613,VALID,0,VALID,95.1071,VALID,-0.0509425,VALID,18.4937,VALID,158,VALID,0.741498,
2000-10-21, 01:41:00,VALID,917.6,VALID,0,VALID,95.0613,VALID,-0.101885,VALID,18.5138,VALID,170,VALID,0.48353,
2000-10-21, 01:42:00,VALID,917.588,VALID,0,VALID,95.1415,VALID,-0.101885,VALID,18.5004,VALID,171,VALID,0.33676,
2000-10-21, 01:43:00,VALID,917.577,VALID,0,VALID,95.3004,VALID,-0.101885,VALID,18.4942,VALID,147,VALID,0.347245,
2000-10-21, 01:44:00,VALID,917.578,VALID,0,VALID,95.3347,VALID,-0.0849042,VALID,18.478,VALID,145,VALID,0.349107,
2000-10-21, 01:45:00,VALID,917.565,VALID,0,VALID,95.5967,VALID,-0.101885,VALID,18.4718,VALID,145,VALID,0.315667,
2000-10-21, 01:46:00,VALID,917.539,VALID,0,VALID,95.8599,VALID,-0.0679233,VALID,18.4388,VALID,145,VALID,0,
2000-10-21, 01:47:00,VALID,917.525,VALID,0,VALID,96.1079,VALID,0,VALID,18.3892,VALID,145,VALID,0,
2000-10-21, 01:48:00,VALID,917.502,VALID,0,VALID,96.1244,VALID,0,VALID,18.3569,VALID,156,VALID,0,
2000-10-21, 01:49:00,VALID,917.473,VALID,0,VALID,95.9744,VALID,0,VALID,18.3541,VALID,160,VALID,0,
2000-10-21, 01:50:00,VALID,917.473,VALID,0,VALID,95.9006,VALID,0.0339617,VALID,18.3636,VALID,165,VALID,0,
2000-10-21, 01:51:00,VALID,917.455,VALID,0,VALID,95.7747,VALID,0,VALID,18.3765,VALID,178,VALID,0.504856,
2000-10-21, 01:52:00,VALID,917.45,VALID,0,VALID,95.7709,VALID,0,VALID,18.3931,VALID,177,VALID,0.834329,
2000-10-21, 01:53:00,VALID,917.422,VALID,0,VALID,95.7722,VALID,0,VALID,18.3827,VALID,177,VALID,0.751689,
2000-10-21, 01:54:00,VALID,917.412,VALID,0,VALID,95.8993,VALID,0.0509425,VALID,18.3889,VALID,192,VALID,0.527344,
2000-10-21, 01:55:00,VALID,917.404,VALID,0,VALID,95.9896,VALID,0,VALID,18.37,VALID,191,VALID,0.793174,
2000-10-21, 01:56:00,VALID,917.39,VALID,0,VALID,96.0913,VALID,0.0169808,VALID,18.3509,VALID,182,VALID,0.997545,
2000-10-21, 01:57:00,VALID,917.373,VALID,0,VALID,96.1206,VALID,0.0509425,VALID,18.3472,VALID,181,VALID,0.963682,
2000-10-21, 01:58:00,VALID,917.337,VALID,0,VALID,96.2032,VALID,0.0169808,VALID,18.3571,VALID,192,VALID,1.23139,
2000-10-21, 01:59:00,VALID,917.306,VALID,0,VALID,96.2719,VALID,0.0679233,VALID,18.334,VALID,204,VALID,1.06947,
2000-10-21, 02:00:00,VALID,917.284,VALID,0,VALID,96.3851,VALID,0.0339617,VALID,18.3308,VALID,227,VALID,1.08936,
2000-10-21, 02:01:00,VALID,917.268,VALID,0,VALID,96.5822,VALID,0.0169808,VALID,18.3214,VALID,231,VALID,1.09796,
2000-10-21, 02:02:00,VALID,917.26,VALID,0,VALID,96.7259,VALID,0.0169808,VALID,18.3089,VALID,225,VALID,1.08504,
2000-10-21, 02:03:00,VALID,917.242,VALID,0,VALID,96.8721,VALID,0.0169808,VALID,18.2861,VALID,223,VALID,1.10389,
2000-10-21, 02:04:00,VALID,917.243,VALID,0,VALID,97.0171,VALID,0,VALID,18.2667,VALID,236,VALID,0.313649,
2000-10-21, 02:05:00,VALID,917.239,VALID,0,VALID,97.1353,VALID,0,VALID,18.2508,VALID,230,VALID,0,
2000-10-21, 02:06:00,VALID,917.229,VALID,0,VALID,97.2485,VALID,0.0169808,VALID,18.2381,VALID,223,VALID,0,
2000-10-21, 02:07:00,VALID,917.203,VALID,0,VALID,97.3464,VALID,0,VALID,18.2247,VALID,209,VALID,0.513363,
2000-10-21, 02:08:00,VALID,917.189,VALID,0,VALID,97.4113,VALID,0.0169808,VALID,18.209,VALID,211,VALID,0.678795,
2000-10-21, 02:09:00,VALID,917.174,VALID,0,VALID,97.485,VALID,0,VALID,18.1825,VALID,217,VALID,0.0916385,
2000-10-21, 02:10:00,VALID,917.16,VALID,0,VALID,97.5702,VALID,0.0169808,VALID,18.1693,VALID,212,VALID,0.0790441,
2000-10-21, 02:11:00,VALID,917.164,VALID,0,VALID,97.5906,VALID,0,VALID,18.1633,VALID,209,VALID,0.136402,
2000-10-21, 02:12:00,VALID,917.153,VALID,0,VALID,97.5931,VALID,0,VALID,18.1536,VALID,207,VALID,0.0698242,
2000-10-21, 02:13:00,VALID,917.152,VALID,0,VALID,97.5664,VALID,0.0169808,VALID,18.1603,VALID,207,VALID,0.132412,
2000-10-21, 02:14:00,VALID,917.137,VALID,0,VALID,97.5066,VALID,0.0169808,VALID,18.1636,VALID,207,VALID,0.303795,
2000-10-21, 02:15:00,VALID,917.131,VALID,0,VALID,97.3769,VALID,0.0679233,VALID,18.1829,VALID,207,VALID,0.407728,
2000-10-21, 02:16:00,VALID,917.1,VALID,0,VALID,97.1849,VALID,0.0339617,VALID,18.2019,VALID,197,VALID,0.630285,
2000-10-21, 02:17:00,VALID,917.078,VALID,0,VALID,96.8823,VALID,0.0339617,VALID,18.2478,VALID,195,VALID,0.763302,
2000-10-21, 02:18:00,VALID,917.05,VALID,0,VALID,96.5148,VALID,0.0169808,VALID,18.293,VALID,196,VALID,0.967105,
2000-10-21, 02:19:00,VALID,917.049,VALID,0,VALID,96.0405,VALID,0,VALID,18.3509,VALID,198,VALID,0.887336,
2000-10-21, 02:20:00,VALID,917.032,VALID,0,VALID,95.5636,VALID,0.0339617,VALID,18.4155,VALID,194,VALID,0.83058,
2000-10-21, 02:21:00,VALID,917.029,VALID,0,VALID,95.4238,VALID,0.0339617,VALID,18.4766,VALID,180,VALID,0.157143,
2000-10-21, 02:22:00,VALID,917.029,VALID,0,VALID,95.5306,VALID,0.0169808,VALID,18.4861,VALID,179,VALID,0.0358456,
2000-10-21, 02:23:00,VALID,917.019,VALID,0,VALID,95.5128,VALID,0,VALID,18.4801,VALID,179,VALID,0,
2000-10-21, 02:24:00,VALID,917.011,VALID,0,VALID,95.3144,VALID,0,VALID,18.4642,VALID,183,VALID,0.406738,
2000-10-21, 02:25:00,VALID,917.007,VALID,0,VALID,94.6265,VALID,0,VALID,18.4642,VALID,186,VALID,0.559095,
2000-10-21, 02:26:00,VALID,917.005,VALID,0,VALID,94.1776,VALID,0,VALID,18.4898,VALID,184,VALID,0.341295,
2000-10-21, 02:27:00,VALID,917.01,VALID,0,VALID,94.5107,VALID,0.0339617,VALID,18.5417,VALID,184,VALID,0.0458193,
2000-10-21, 02:28:00,VALID,917.01,VALID,0,VALID,94.8897,VALID,0,VALID,18.5412,VALID,110,VALID,0.550092,
2000-10-21, 02:29:00,VALID,917.018,VALID,0,VALID,95.1987,VALID,0.0169808,VALID,18.4798,VALID,96,VALID,0.478041,
2000-10-21, 02:30:00,VALID,917.014,VALID,0,VALID,95.4644,VALID,0.0169808,VALID,18.4284,VALID,106,VALID,0.4669,
2000-10-21, 02:31:00,VALID,917.018,VALID,0,VALID,95.7518,VALID,0,VALID,18.3479,VALID,111,VALID,0.785773,
2000-10-21, 02:32:00,VALID,917.002,VALID,0,VALID,96.0939,VALID,-0.101885,VALID,18.2877,VALID,111,VALID,0.851339,
2000-10-21, 02:33:00,VALID,917.005,VALID,0,VALID,96.427,VALID,-0.0849042,VALID,18.2233,VALID,121,VALID,0.716216,
2000-10-21, 02:34:00,VALID,917.008,VALID,0,VALID,96.5809,VALID,-0.0679233,VALID,18.1977,VALID,122,VALID,0.654871,
2000-10-21, 02:35:00,VALID,916.989,VALID,0,VALID,96.6814,VALID,-0.101885,VALID,18.1709,VALID,122,VALID,0.631546,
2000-10-21, 02:36:00,VALID,916.996,VALID,0,VALID,96.6865,VALID,-0.0679233,VALID,18.1518,VALID,120,VALID,0.205322,
2000-10-21, 02:37:00,VALID,917.002,VALID,0,VALID,96.75,VALID,-0.0849042,VALID,18.1587,VALID,120,VALID,0,
2000-10-21, 02:38:00,VALID,917.008,VALID,0,VALID,96.7589,VALID,-0.101885,VALID,18.1426,VALID,120,VALID,0.212054,
2000-10-21, 02:39:00,VALID,917.001,VALID,0,VALID,96.8429,VALID,-0.101885,VALID,18.1426,VALID,120,VALID,0.912373,
2000-10-21, 02:40:00,VALID,916.973,VALID,0,VALID,96.9344,VALID,-0.0679233,VALID,18.1557,VALID,134,VALID,1.16659,
2000-10-21, 02:41:00,VALID,916.96,VALID,0,VALID,96.8886,VALID,-0.0849042,VALID,18.1589,VALID,133,VALID,1.06672,
2000-10-21, 02:42:00,VALID,916.952,VALID,0,VALID,96.8174,VALID,-0.0849042,VALID,18.1746,VALID,120,VALID,0.617188,
2000-10-21, 02:43:00,VALID,916.947,VALID,0,VALID,96.8607,VALID,-0.0679233,VALID,18.1684,VALID,120,VALID,0.0489309,
2000-10-21, 02:44:00,VALID,916.933,VALID,0,VALID,96.9026,VALID,-0.0679233,VALID,18.1356,VALID,60,VALID,0.391964,
2000-10-21, 02:45:00,VALID,916.921,VALID,0,VALID,96.9484,VALID,-0.101885,VALID,18.1229,VALID,304,VALID,0.675676,
2000-10-21, 02:46:00,VALID,916.904,VALID,0,VALID,96.942,VALID,-0.0679233,VALID,18.1354,VALID,275,VALID,0.629366,
2000-10-21, 02:47:00,VALID,916.879,VALID,0,VALID,97.0209,VALID,0.0169808,VALID,18.1509,VALID,238,VALID,0.579392,
2000-10-21, 02:48:00,VALID,916.864,VALID,0,VALID,97.1302,VALID,0,VALID,18.1737,VALID,232,VALID,0.169434,
2000-10-21, 02:49:00,VALID,916.855,VALID,0,VALID,97.2129,VALID,0,VALID,18.1474,VALID,224,VALID,0.258213,
2000-10-21, 02:50:00,VALID,916.83,VALID,0,VALID,97.246,VALID,0.0169808,VALID,18.1343,VALID,215,VALID,0.0959821,
2000-10-21, 02:51:00,VALID,916.818,VALID,0,VALID,96.9014,VALID,0.0169808,VALID,18.1218,VALID,164,VALID,0.912373,
2000-10-21, 02:52:00,VALID,916.784,VALID,0,VALID,96.3419,VALID,0,VALID,18.1991,VALID,152,VALID,0.70864,
2000-10-21, 02:53:00,VALID,916.761,VALID,0,VALID,96.0392,VALID,0.0169808,VALID,18.257,VALID,186,VALID,0.352829,
2000-10-21, 02:54:00,VALID,916.751,VALID,0,VALID,95.9769,VALID,0.0169808,VALID,18.2764,VALID,174,VALID,0.0185033,
2000-10-21, 02:55:00,VALID,916.757,VALID,0,VALID,96.0379,VALID,0.0509425,VALID,18.2893,VALID,162,VALID,0,
2000-10-21, 02:56:00,VALID,916.75,VALID,0,VALID,96.1155,VALID,0.0339617,VALID,18.2697,VALID,162,VALID,0.0886161,
2000-10-21, 02:57:00,VALID,916.729,VALID,0,VALID,96.2376,VALID,0.0169808,VALID,18.2605,VALID,130,VALID,0.519426,
2000-10-21, 02:58:00,VALID,916.729,VALID,0,VALID,96.4156,VALID,0.0169808,VALID,18.1991,VALID,165,VALID,0.878906,
2000-10-21, 02:59:00,VALID,916.742,VALID,0,VALID,96.4143,VALID,0,VALID,18.1573,VALID,184,VALID,1.2065,
2000-10-21, 03:00:00,VALID,916.756,VALID,0,VALID,96.4436,VALID,0.0169808,VALID,18.141,VALID,199,VALID,0.920898,
2000-10-21, 03:01:00,VALID,916.759,VALID,0,VALID,96.5161,VALID,0.0169808,VALID,18.1442,VALID,198,VALID,0.945713,
2000-10-21, 03:02:00,VALID,916.752,VALID,0,VALID,96.6267,VALID,0.0169808,VALID,18.1313,VALID,194,VALID,1.01071,
2000-10-21, 03:03:00,VALID,916.753,VALID,0,VALID,96.7513,VALID,0,VALID,18.1119,VALID,186,VALID,1.06503,
2000-10-21, 03:04:00,VALID,916.744,VALID,0,VALID,96.839,VALID,-0.0169808,VALID,18.0992,VALID,185,VALID,1.0432,
2000-10-21, 03:05:00,VALID,916.749,VALID,0,VALID,96.8925,VALID,0.0169808,VALID,18.0997,VALID,183,VALID,0.904561,
2000-10-21, 03:06:00,VALID,916.728,VALID,0,VALID,96.9929,VALID,0,VALID,18.0863,VALID,190,VALID,1.1616,
2000-10-21, 03:07:00,VALID,916.718,VALID,0,VALID,97.0794,VALID,0,VALID,18.0736,VALID,188,VALID,1.06928,
2000-10-21, 03:08:00,VALID,916.686,VALID,0,VALID,97.2587,VALID,0,VALID,18.0701,VALID,195,VALID,1.09777,
2000-10-21, 03:09:00,VALID,916.694,VALID,0,VALID,97.3375,VALID,0,VALID,18.0503,VALID,199,VALID,1.06905,
2000-10-21, 03:10:00,VALID,916.679,VALID,0,VALID,97.4367,VALID,0,VALID,18.0408,VALID,197,VALID,1.15556,
2000-10-21, 03:11:00,VALID,916.665,VALID,0,VALID,97.5092,VALID,-0.0169808,VALID,18.0346,VALID,201,VALID,1.24557,
2000-10-21, 03:12:00,VALID,916.645,VALID,0,VALID,97.616,VALID,0,VALID,18.0251,VALID,203,VALID,1.24292,
2000-10-21, 03:13:00,VALID,916.62,VALID,0,VALID,97.705,VALID,-0.0169808,VALID,18.012,VALID,205,VALID,0.982973,
2000-10-21, 03:14:00,VALID,916.609,VALID,0,VALID,97.7762,VALID,0,VALID,18.0023,VALID,207,VALID,0.908705,
2000-10-21, 03:15:00,VALID,916.584,VALID,0,VALID,97.869,VALID,0,VALID,17.9924,VALID,208,VALID,0.803421,
2000-10-21, 03:16:00,VALID,916.581,VALID,0,VALID,97.9542,VALID,0,VALID,17.9995,VALID,203,VALID,0.477711,
2000-10-21, 03:17:00,VALID,916.614,VALID,0,VALID,98.0496,VALID,0.0169808,VALID,17.9989,VALID,188,VALID,0.784206,
2000-10-21, 03:18:00,VALID,916.615,VALID,0,VALID,98.0776,VALID,0,VALID,18.0019,VALID,187,VALID,0.74486,
2000-10-21, 03:19:00,VALID,916.6,VALID,0,VALID,98.0585,VALID,0.0169808,VALID,18.012,VALID,211,VALID,0.942229,
2000-10-21, 03:20:00,VALID,916.579,VALID,0,VALID,98.0445,VALID,0,VALID,18.0187,VALID,219,VALID,1.16406,
2000-10-21, 03:21:00,VALID,916.558,VALID,0,VALID,98.0318,VALID,0,VALID,18.0247,VALID,212,VALID,0.988598,
2000-10-21, 03:22:00,VALID,916.543,VALID,0,VALID,98.0102,VALID,0,VALID,18.0088,VALID,186,VALID,0.878217,
2000-10-21, 03:23:00,VALID,916.531,VALID,0,VALID,97.9949,VALID,0,VALID,18.0217,VALID,181,VALID,0.81609,
2000-10-21, 03:24:00,VALID,916.534,VALID,0,VALID,97.9708,VALID,0,VALID,18.0088,VALID,188,VALID,0.857178,
2000-10-21, 03:25:00,VALID,916.533,VALID,0,VALID,97.986,VALID,0,VALID,18.0118,VALID,196,VALID,0.847756,
2000-10-21, 03:26:00,VALID,916.538,VALID,0,VALID,97.9911,VALID,0,VALID,18.0148,VALID,183,VALID,0.878795,
2000-10-21, 03:27:00,VALID,916.536,VALID,0,VALID,97.9937,VALID,0,VALID,18.0182,VALID,172,VALID,0.794341,
2000-10-21, 03:28:00,VALID,916.529,VALID,0,VALID,97.8958,VALID,0,VALID,18.0053,VALID,176,VALID,1.05538,
2000-10-21, 03:29:00,VALID,916.518,VALID,0,VALID,97.8589,VALID,0.0169808,VALID,17.9892,VALID,195,VALID,1.06989,
2000-10-21, 03:30:00,VALID,916.515,VALID,0,VALID,97.7521,VALID,0,VALID,17.9827,VALID,194,VALID,0.95991,
2000-10-21, 03:31:00,VALID,916.508,VALID,0,VALID,97.5499,VALID,-0.0339617,VALID,17.9993,VALID,180,VALID,1.03022,
2000-10-21, 03:32:00,VALID,916.485,VALID,0,VALID,97.2917,VALID,-0.0679233,VALID,18.0196,VALID,153,VALID,0.933482,
2000-10-21, 03:33:00,VALID,916.491,VALID,0,VALID,97.0896,VALID,-0.101885,VALID,18.0459,VALID,152,VALID,1.16427,
2000-10-21, 03:34:00,VALID,916.494,VALID,0,VALID,96.9382,VALID,-0.118866,VALID,18.0427,VALID,163,VALID,1.01608,